This demonstration page uses our WeatherBlox Daily Observations layout. Learn more.

Left ArrowRight Arrow

Hourly Observations for August 3, 2022

Temp ( °F °C ) Dew Point ( °F °C ) Humidity (%) Winds ( mph kmh ) Pressure ( in mb ) Visibility ( mi km ) Precip ( " mm )
12:52 am 00:52 Clear 81 27.2 71 21.7 72 72 S 10 17 29.86 1011 10 16 0.00 0.00
1:52 am 01:52 Clear 79 26.1 71 21.7 77 77 S 13 20 29.85 1011 10 16 0.00 0.00
2:52 am 02:52 Clear 78 25.6 71 21.7 79 79 SSE 12 19 29.84 1010 10 16 0.00 0.00
3:52 am 03:52 Clear 78 25.6 71 21.7 79 79 S 10 17 29.83 1010 10 16 0.00 0.00
4:52 am 04:52 Clear 77 25 71 21.7 82 82 SSE 14 22 29.83 1010 10 16 0.00 0.00
5:52 am 05:52 Clear 76 24.4 71 21.7 85 85 S 10 17 29.84 1011 10 16 0.00 0.00
6:52 am 06:52 Sunny 76 24.4 72 22.2 88 88 S 10 17 29.86 1011 10 16 0.00 0.00
7:52 am 07:52 Sunny 79 26.1 72 22.2 79 79 S 13 20 29.87 1011 10 16 0.00 0.00
8:52 am 08:52 Sunny 84 28.9 72 22.2 67 67 S 14 22 29.85 1011 10 16 0.00 0.00
9:52 am 09:52 Sunny 88 31.1 71 21.7 57 57 S 16 26 29.84 1011 10 16 0.00 0.00
10:52 am 10:52 Sunny 92 33.3 70 21.1 49 49 SSW 13 20 29.84 1011 10 16 0.00 0.00
11:52 am 11:52 Sunny 95 35 69 20.6 43 43 SSW 14 22 29.84 1010 10 16 0.00 0.00
12:52 pm 12:52 Sunny 95 35 68 20 41 41 SW 16 26 29.84 1010 10 16 0.00 0.00
1:52 pm 13:52 Sunny 98 36.7 67 19.4 36 36 SW 15 24 29.83 1010 10 16 0.00 0.00
2:52 pm 14:52 Mostly Sunny 99 37.2 65 18.3 33 33 SW 12 19 29.81 1009 10 16 0.00 0.00
3:52 pm 15:52 Sunny 99 37.2 65 18.3 33 33 SW 12 19 29.79 1009 10 16 0.00 0.00
4:52 pm 16:52 Mostly Sunny 99 37.2 65 18.3 33 33 SSW 15 24 29.79 1009 10 16 0.00 0.00
5:52 pm 17:52 Mostly Sunny 96 35.6 67 19.4 39 39 SSW 9 15 29.79 1009 10 16 0.00 0.00
6:52 pm 18:52 Partly Cloudy 94 34.4 67 19.4 41 41 SSW 6 9 29.80 1009 10 16 0.00 0.00
7:52 pm 19:52 Sunny 91 32.8 68 20 47 47 SSW 7 11 29.81 1009 10 16 0.00 0.00
8:52 pm 20:52 Clear 90 32.2 69 20.6 50 50 SSW 9 15 29.83 1010 10 16 0.00 0.00
9:52 pm 21:52 Clear 88 31.1 70 21.1 55 55 SSE 8 13 29.86 1011 10 16 0.00 0.00
10:52 pm 22:52 Clear 87 30.6 70 21.1 57 57 SSE 9 15 29.84 1010 10 16 0.00 0.00
11:52 pm 23:52 Clear 85 29.4 71 21.7 63 63 S 13 20 29.82 1010 10 16 0.00 0.00

Powered by AerisWeather